Regional Weather Roundup
Issued by NWS

Home | Current Version | Previous Version | Graphics & Text | Print | Product List | Glossary On
Versions: 1 2 3 4 5 6 7 8 9 10 11 12 13 14 15 16 17 18 19 20 21 22 23 24 25 26 27 28 29 30 31 32 33 34 35 36 37 38 39 40 41 42 43 44 45 46 47 48 49 50
000
ASUS43 KFSD 272010
RWRSD

WEATHER ROUNDUP FOR SOUTH DAKOTA
NATIONAL WEATHER SERVICE SIOUX FALLS SD
300 PM CDT MON MAR 27 2017

NOTE: "FAIR" INDICATES FEW OR NO CLOUDS BELOW 12,000 FEET WITH NO
SIGNIFICANT WEATHER AND/OR OBSTRUCTIONS TO VISIBILITY.


SDZ001>005-009-010-012>017-272100-
NORTHWEST AND NORTH CENTRAL SOUTH DAKOTA

CITY           SKY/WX    TMP DP  RH WIND       PRES   REMARKS
BUFFALO          N/A     60  28  29 SE14G21   29.79F
FAITH            N/A     55  39  54 MISG      29.88F
MOBRIDGE       SUNNY     60  35  39 S9        29.88F
$$

SDZ012>016-024>037-041>051-057-063-072>074-272100-
SOUTHWEST AND SOUTH CENTRAL SOUTH DAKOTA

CITY           SKY/WX    TMP DP  RH WIND       PRES   REMARKS
RAPID CTY ARPT MOSUNNY   54  42  64 E9        29.85F
PIERRE         SUNNY     58  31  35 SE8G17    29.89F
CUSTER         CLOUDY    50  34  54 E7        29.85S
ELLSWORTH AFB  SUNNY     56  42  60 CALM      29.85F
PHILIP         SUNNY     61  37  41 E9        29.86F
PINE RIDGE     CLOUDY    62  36  37 E5        29.81F
SPEARFISH      FAIR      54  39  58 E14       29.84S
WINNER         FAIR      60  39  45 SE8       29.89F
$$

SDZ004>011-016>023-039-040-272100-
NORTHEAST SOUTH DAKOTA

CITY           SKY/WX    TMP DP  RH WIND       PRES   REMARKS
ABERDEEN       SUNNY     59  33  37 E5        29.93F
WATERTOWN      SUNNY     55  35  47 CALM      29.93F
BROOKINGS      MOSUNNY   55  35  47 N8        29.93F
SISSETON         N/A     56  39  53 SE7       29.94F
$$

SDZ017-020-022-023-036>040-048>070-272100-
SOUTHEAST SOUTH DAKOTA

CITY           SKY/WX    TMP DP  RH WIND       PRES   REMARKS
SIOUX FALLS    MOSUNNY   58  37  45 E6        29.94F
HURON          PTSUNNY   59  33  37 VRB5      29.93F
CHAMBERLAIN    SUNNY     61  34  36 NE5       29.91F
MITCHELL       SUNNY     58  35  42 S5        29.94F
YANKTON        SUNNY     54  37  54 CALM      29.94F
$$

ABBREVIATIONS USED IN REMARKS
   TC - TEMPERATURE IN CELSIUS
  WCI - WIND CHILL INDEX
   HX - HEAT INDEX
  VSB - VISIBILITY





USA.gov is the U.S. government's official web portal to all federal, state and local government web resources and services.